Regional Weather Roundup
Issued by NWS State College, PA

Home | Current Version | Previous Version | Text Only | Print | Product List | Glossary Off
Versions: 1 2 3 4 5 6 7 8 9 10 11 12 13 14 15 16 17 18 19 20 21 22 23 24 25 26 27 28 29 30 31 32 33 34 35 36 37 38 39 40 41 42 43 44 45 46 47 48 49 50

395
ASUS41 KCTP 250610
RWRCTP

REGIONAL WEATHER ROUNDUP
NATIONAL WEATHER SERVICE STATE COLLEGE PA
200 AM EDT THU MAY 25 2017

Note: "fair" indicates few or no clouds below 12,000 feet with no
significant weather and/or obstructions to visibility.

* = STATION THAT DOES NOT REPORT PRECIPITATION /E.G. RAIN...SNOW...ETC/
    THUNDER OR FOG.

PAZ002>004-007>009-013>016-020>023-029>032-250700-
WESTERN PENNSYLVANIA

CITY           SKY/WX    TMP DP  RH WIND       PRES   REMARKS
ERIE           CLOUDY    59  54  83 SE13      29.52F
MEADVILLE      CLOUDY    57  55  93 VRB7      29.53F
FRANKLIN*      CLOUDY    55  52  88 SE14G20   29.55F
NEW CASTLE     CLOUDY    59  55  87 SE8G17    29.52F
BEAVER COUNTY  NOT AVBL
BUTLER*        CLOUDY    57  54  88 E6        29.53F
PITTSBURGH INT LGT RAIN  58  57  97 SE10      29.51S
PITTSBURGH     LGT RAIN  57  53  86 SE9       29.52S
INDIANA*       CLOUDY    57  55  94 SE16G28   29.59F FOG
LATROBE        LGT RAIN  57  55  94 E13G23    29.53S
WASHINGTON CO* CLOUDY    57  54  88 SE9       29.53S
$$

PAZ004>006-010>012-017>019-024>028-033>037-041-042-045-046-049>053-250700-
CENTRAL PENNSYLVANIA

CITY           SKY/WX    TMP DP  RH WIND       PRES   REMARKS
BRADFORD       LGT RAIN  54  54 100 SE12G20   29.62F FOG
DUBOIS         LGT RAIN  55  52  89 SE14G22   29.59F FOG
CLEARFIELD     LGT RAIN  56  55  97 E8        29.64F
JOHNSTOWN      LGT RAIN  53  52  96 E10G20    29.59F
ALTOONA        LGT RAIN  57  54  89 E12       29.62F
STATE COLLEGE  DRIZZLE   55  51  86 E7        29.66S
WILLIAMSPORT   CLOUDY    63  49  60 SE13G22   29.66F
SELINSGROVE    CLOUDY    61  49  64 SE13G22   29.68F
FT INDIANTOWN  CLOUDY    57  54  88 E9        29.69F
CAPITAL CITY   LGT RAIN  59  53  80 E15       29.67
HARRISBURG     LGT RAIN  58  55  90 SE16      29.68S
YORK           LGT RAIN  57  54  89 E14       29.66F
$$

PAZ038>040-043-044-047-048-054-055-060>062-067>071-250700-
EASTERN PENNSYLVANIA

CITY           SKY/WX    TMP DP  RH WIND       PRES   REMARKS
SCRANTON       CLOUDY    58  50  75 VRB3      29.71F
MOUNT POCONO   CLOUDY    50  49  96 E14       29.74F
ALLENTOWN      CLOUDY    59  50  72 E12       29.75F
QUAKERTOWN*    NOT AVBL
READING        CLOUDY    59  52  77 E14G26    29.70F
LANCASTER      CLOUDY    59  54  83 E17       29.69F
COATESVILLE    DRIZZLE   55  54  94 E18G26    29.71F
POTTSTOWN      CLOUDY    56  51  84 VRB5      29.74F
BLUE BELL      CLOUDY    54  52  94 E9        29.74F
DOYLESTOWN     CLOUDY    56  50  81 NE5       29.74S
WILLOW GROVE   NOT AVBL
NORTH PHILA    CLOUDY    58  53  84 E14       29.76F
PHILADELPHIA   CLOUDY    58  53  84 E13       29.73F
$$




USA.gov is the U.S. government's official web portal to all federal, state and local government web resources and services.